Regional Weather Roundup
Issued by NWS

Home | Current Version | Previous Version | Graphics & Text | Print | Product List | Glossary On
Versions: 1 2 3 4 5 6 7 8 9 10 11 12 13 14 15 16 17 18 19 20 21 22 23 24 25 26 27
000
ASUS45 KBOU 292110
RWRCO

WEATHER ROUNDUP FOR COLORADO
NATIONAL WEATHER SERVICE DENVER/BOULDER CO
300 PM MDT THU SEP 29 2016

NOTE: "FAIR" INDICATES FEW OR NO CLOUDS BELOW 12000 FEET WITH NO
SIGNIFICANT WEATHER AND/OR OBSTRUCTIONS TO VISIBILITY.

COZ001>005-013-030-031-292200-
...NORTHWEST COLORADO...

CITY           SKY/WX    TMP DP  RH WIND       PRES   REMARKS
CRAIG          CLOUDY    59  51  75 W15       30.42S
HAYDEN         FAIR      63  45  51 W17G23    30.42S
MEEKER         CLOUDY    59  53  80 W5        30.43F
MOUNT WERNER   NOT AVBL
STEAMBOAT SPGS CLOUDY    67  42  40 W12       30.40F
WALDEN           N/A     70  27  19 SW12G18   30.43F
$$

COZ006>008-011-292200-
...WEST CENTRAL VALLEYS...

CITY           SKY/WX    TMP DP  RH WIND       PRES   REMARKS
GRAND JUNCTION CLOUDY    61  57  87 CALM      30.35F
MONTROSE       CLOUDY    63  50  62 N8        30.41F
EAGLE          CLOUDY    70  36  28 SW14      30.40F
RIFLE          CLOUDY    66  51  58 W14       30.36F
DELTA          CLOUDY    68  53  60 S6        30.38S
NUCLA          LGT RAIN  59  54  82 CALM      30.47F
$$

COZ017>023-064>068-292200-
...SOUTHWEST COLORADO...

CITY           SKY/WX    TMP DP  RH WIND       PRES   REMARKS
DURANGO        LGT RAIN  57  50  77 E6        30.51R
CORTEZ         LGT RAIN  56  52  86 SW7       30.46S
PAGOSA SPRINGS LGT RAIN  56  45  67 NW7       30.54F
TELLURIDE      CLOUDY    55  37  50 SE5G16    30.58F
WOLF CREEK PAS RAIN      37  34  87 SW16      30.77F
$$

COZ009-010-012-014-032>034-037-058>063-292200-
...CENTRAL COLORADO...

CITY           SKY/WX    TMP DP  RH WIND       PRES   REMARKS
ASPEN          PTSUNNY   66  33  29 N7        30.44F
BUENA VISTA    CLOUDY    70  26  19 SE10G23   30.45S
COPPER MTN     CLOUDY    54  27  35 W9        30.72S
BERTHOUD PASS  CLOUDY    45  32  61 N10       30.74F
COTTONWOOD PAS PTSUNNY   64  23  20 SW7       30.58F
GUNNISON       FAIR      68  34  28 CALM      30.45F
KREMMLING      FAIR      73  27  17 W21G29    30.41R
LEADVILLE      CLOUDY    56  29  35 N9        30.58R
MONARCH PASS   PTSUNNY   52  27  37 SW17      30.82F
SALIDA         FAIR      73  24  16 S13G23    30.50S
SUNLIGHT       LGT RAIN  52  41  66 SW14G24   30.66F
WILKERSON PASS PTSUNNY   59  23  25 SW8       30.69F
$$

COZ069>075-292200-
...SAN LUIS VALLEY/SANGRE DE CRISTO MOUNTAINS...

CITY           SKY/WX    TMP DP  RH WIND       PRES   REMARKS
ALAMOSA        FAIR      71  30  21 S12       30.44F
LA VETA PASS   PTSUNNY   59  27  29 MISG      30.61F
SAGUACHE       NOT AVBL
$$

COZ035-036-038>040-292200-
...NORTHERN COLORADO FRONT RANGE...

CITY           SKY/WX    TMP DP  RH WIND       PRES   REMARKS
DENVER INTL AP FAIR      86  37  17 N17G24    30.24F
DMNS CITY PARK   N/A     80  38  22 N10       30.23F
AURORA         MOSUNNY   84  33  15 E5        30.25F
FRONT RANGE AP MOSUNNY   88  30  12 SE18G25   30.25F
ERIE MUNI ARPT FAIR      79  37  22 N8        30.25F
BOULDER MUN AP FAIR      77  37  24 NE5       30.26F
CENTENNIAL     FAIR      81  30  15 S18G25    30.27F
BROOMFIELD     PTSUNNY   81  39  22 N12G17    30.29F
FORT COLLINS   FAIR      79  39  24 E9        30.23F
LONGMONT       FAIR      80  39  22 N3        30.27F
$$

COZ041-046-047-076>085-087-088-292200-
...PIKES PEAK/PALMER DIVIDE AND SOUTHERN FOOTHILLS...

CITY           SKY/WX    TMP DP  RH WIND       PRES   REMARKS
COLO. SPRINGS  PTSUNNY   78  31  17 S18       30.36F
A. F. ACADEMY  FAIR      76  31  19 S18       30.35F
SCHRIEVER AFB  NOT AVBL
ELLICOTT       NOT AVBL
FALCON         FAIR      75  26  16 S21G29    30.41F
FORT CARSON    FAIR      78  33  19 SE12      30.33F
LIMON          FAIR      80  33  18 S20G28    30.31F
MONUMENT HILL  FAIR      73  30  20 S21G26    30.40F
TRINIDAD       FAIR      81  27  14 S18       30.33F
$$

COZ042>045-048>051-090-091-292200-
...NORTHEAST COLORADO...

CITY           SKY/WX    TMP DP  RH WIND       PRES   REMARKS
GREELEY ARPT   FAIR      81  39  22 NE3       30.24F
AKRON          FAIR      79  39  23 SE22G31   30.28F
BURLINGTON     FAIR      76  39  26 S21G28    30.32F
WRAY           NOT AVBL
STERLING       FAIR      82  43  24 SE15G22   30.24F
HOLYOKE        FAIR      79  43  27 SE15G22   30.29F
FORT MORGAN    FAIR      85  35  16 SE15G21   30.24F
$$

COZ086-089-092>099-292200-
...SOUTHEAST COLORADO...

CITY           SKY/WX    TMP DP  RH WIND       PRES   REMARKS
PUEBLO         FAIR      84  37  18 SE15G23   30.25F
LA JUNTA       FAIR      84  39  20 E9        30.26F
LAMAR          FAIR      84  43  23 SE16      30.25F
SPRINGFIELD      N/A     76  45  33 S16G23    30.33F
$$




USA.gov is the U.S. government's official web portal to all federal, state and local government web resources and services.